Glencoe, MN

11:38 PM CDT on October 17, 2017 (GMT -0500)
Glencoe Municipal

Weather History for KGYL - April, 2013

Change the Weather History Date:

Friday, April 5, 2013

  Actual Average (KHCD) Record (KHCD)
Temperature  
Mean Temperature 32 °F -  
Max Temperature 39 °F 51 °F 75 °F (1991)
Min Temperature 26 °F 30 °F 14 °F (2007)
Degree Days  
Heating Degree Days 32    
Moisture  
Dew Point 27 °F    
Average Humidity 80    
Maximum Humidity 96    
Minimum Humidity 53    
Precipitation  
Precipitation 0.01 in - - ()
Sea Level Pressure  
Sea Level Pressure 30.10 in    
Wind  
Wind Speed 9 mph (ENE)    
Max Wind Speed 20 mph    
Max Gust Speed 26 mph    
Visibility 9 miles    
Events Rain , Snow    
Averages and records for this station are not official NWS values.
T = Trace of Precipitation, MM = Missing Value Source: NWS Daily Summary

Daily Weather History Graph

Daily Weather History Graph

Search for Another Location

Airport or City:

Trip Planner

Search our weather history database for the weather conditions in past years. The results will help you decide how hot, cold, wet, or windy it might be!

Date:

Astronomy

Apr. 05, 2013 Rise Set
Actual Time 6:49 AM CDT 7:49 PM CDT
Civil Twilight 6:19 AM CDT 8:19 PM CDT
Nautical Twilight 5:43 AM CDT 8:54 PM CDT
Astronomical Twilight 5:06 AM CDT 9:32 PM CDT
Moon 4:08 AM CDT (4/5) 3:03 PM CDT (4/5)
Length of Visible Light 13h 59m
Length of Day
13h 00m
Waning Crescent, 23% of the Moon is Illuminated
Apr 5
Waning Crescent
Apr 10
New
Apr 18
First Quarter
Apr 25
Full
May 2
Last Quarter

Hourly Weather History & Observations

Time (CDT) Temp. Windchill Dew Point Humidity Pressure Visibility Wind Dir Wind Speed Gust Speed Precip Events Conditions
12:14 AM 31.1 °F 25.4 °F 25.7 °F 80% 30.18 in 10.0 mi NW 5.8 mph - N/A   Clear
12:34 AM 30.9 °F 23.5 °F 25.7 °F 81% 30.18 in 10.0 mi NW 8.1 mph - N/A   Clear
12:54 AM 30.2 °F 24.3 °F 25.2 °F 82% 30.18 in 10.0 mi NNW 5.8 mph - N/A   Clear
1:14 AM 30.2 °F 24.3 °F 25.2 °F 82% 30.19 in 10.0 mi NNW 5.8 mph - N/A   Clear
1:34 AM 29.8 °F 23.0 °F 24.8 °F 81% 30.19 in 10.0 mi NNW 6.9 mph - N/A   Clear
1:54 AM 29.3 °F 24.3 °F 24.6 °F 83% 30.19 in 10.0 mi NNW 4.6 mph - N/A   Clear
2:15 AM 29.1 °F 23.0 °F 24.6 °F 83% 30.20 in 10.0 mi NNW 5.8 mph - N/A   Clear
2:34 AM 28.8 °F 23.7 °F 24.4 °F 84% 30.20 in 10.0 mi NNW 4.6 mph - N/A   Clear
2:54 AM 29.1 °F 24.1 °F 24.3 °F 82% 30.20 in 10.0 mi NNW 4.6 mph - N/A   Clear
3:15 AM 28.4 °F 22.2 °F 23.7 °F 83% 30.20 in 10.0 mi NNW 5.8 mph - N/A   Clear
3:34 AM 28.0 °F 21.7 °F 23.5 °F 83% 30.20 in 10.0 mi NNW 5.8 mph - N/A   Clear
3:54 AM 28.0 °F 21.7 °F 23.4 °F 83% 30.21 in 10.0 mi NNW 5.8 mph - N/A   Clear
4:14 AM 27.7 °F 21.3 °F 23.0 °F 83% 30.21 in 10.0 mi North 5.8 mph - N/A   Clear
4:34 AM 27.9 °F 22.6 °F 22.8 °F 81% 30.21 in 10.0 mi North 4.6 mph - N/A   Clear
4:54 AM 27.7 °F 22.4 °F 22.1 °F 80% 30.21 in 10.0 mi North 4.6 mph - N/A   Clear
5:14 AM 27.5 °F 23.6 °F 21.7 °F 79% 30.22 in 10.0 mi North 3.5 mph - N/A   Clear
5:34 AM 27.5 °F 22.2 °F 21.2 °F 77% 30.22 in 10.0 mi NNE 4.6 mph - N/A   Clear
5:54 AM 27.5 °F 23.6 °F 21.2 °F 77% 30.22 in 10.0 mi NNE 3.5 mph - N/A   Clear
6:14 AM 27.1 °F - 21.0 °F 78% 30.22 in 10.0 mi Calm Calm - N/A   Clear
6:34 AM 26.6 °F 22.6 °F 21.0 °F 79% 30.21 in 10.0 mi NNE 3.5 mph - N/A   Clear
6:54 AM 26.6 °F 22.6 °F 21.2 °F 80% 30.22 in 10.0 mi NNE 3.5 mph - N/A   Clear
7:15 AM 26.6 °F 22.6 °F 21.2 °F 80% 30.22 in 10.0 mi NE 3.5 mph - N/A   Clear
7:34 AM 27.5 °F 22.2 °F 21.7 °F 79% 30.22 in 10.0 mi NE 4.6 mph - N/A   Clear
7:54 AM 28.4 °F 21.2 °F 21.4 °F 75% 30.21 in 10.0 mi NE 6.9 mph - N/A   Clear
8:14 AM 29.3 °F 23.2 °F 20.8 °F 71% 30.21 in 10.0 mi ENE 5.8 mph - N/A   Clear
8:34 AM 30.6 °F 21.8 °F 21.0 °F 68% 30.21 in 10.0 mi East 10.4 mph - N/A   Clear
8:54 AM 32.0 °F 23.6 °F 21.2 °F 64% 30.21 in 10.0 mi East 10.4 mph - N/A   Clear
9:14 AM 32.4 °F 24.0 °F 21.2 °F 63% 30.20 in 10.0 mi East 10.4 mph - N/A   Clear
9:34 AM 34.0 °F 26.0 °F 21.6 °F 60% 30.20 in 10.0 mi East 10.4 mph - N/A   Clear
9:54 AM 34.7 °F 26.9 °F 21.0 °F 57% 30.20 in 10.0 mi East 10.4 mph - N/A   Scattered Clouds
10:14 AM 35.6 °F 28.0 °F 21.7 °F 57% 30.20 in 10.0 mi East 10.4 mph - N/A   Scattered Clouds
10:34 AM 35.2 °F 27.1 °F 22.3 °F 59% 30.20 in 10.0 mi ESE 11.5 mph - N/A   Overcast
10:54 AM 35.8 °F 29.4 °F 21.9 °F 57% 30.20 in 10.0 mi SE 8.1 mph - N/A   Overcast
11:14 AM 37.2 °F 29.6 °F 22.1 °F 54% 30.19 in 10.0 mi East 11.5 mph - N/A   Overcast
11:34 AM 39.0 °F 31.8 °F 23.4 °F 53% 30.18 in 10.0 mi ESE 11.5 mph - N/A   Mostly Cloudy
11:54 AM 38.5 °F 31.1 °F 23.4 °F 55% 30.17 in 10.0 mi ESE 11.5 mph - N/A   Overcast
12:14 PM 38.3 °F 30.5 °F 23.2 °F 55% 30.16 in 10.0 mi ESE 12.7 mph - N/A   Overcast
12:34 PM 38.3 °F 31.4 °F 24.1 °F 57% 30.15 in 10.0 mi ESE 10.4 mph - N/A   Overcast
12:54 PM 37.8 °F 32.5 °F 24.3 °F 58% 30.15 in 10.0 mi SE 6.9 mph - N/A   Overcast
1:15 PM 37.6 °F 33.1 °F 25.3 °F 61% 30.16 in 10.0 mi SE 5.8 mph - N/A   Overcast
1:34 PM 37.8 °F 33.3 °F 24.1 °F 58% 30.16 in 10.0 mi SE 5.8 mph - N/A   Overcast
1:55 PM 37.0 °F 30.4 °F 26.6 °F 66% 30.15 in 5.0 mi SSE 9.2 mph - N/A Snow Light Snow
2:14 PM 34.7 °F 27.5 °F 29.5 °F 81% 30.13 in 2.5 mi SE 9.2 mph - N/A Snow Light Snow
2:35 PM 33.8 °F 26.4 °F 30.4 °F 87% 30.13 in 2.0 mi ESE 9.2 mph - N/A Snow Light Snow
2:54 PM 33.1 °F 25.5 °F 30.9 °F 92% 30.12 in 1.0 mi ESE 9.2 mph - N/A Snow Light Snow
3:14 PM 32.9 °F 24.7 °F 31.6 °F 95% 30.10 in 2.5 mi ESE 10.4 mph - 0.01 in Snow Light Snow
3:35 PM 32.9 °F 24.1 °F 32.0 °F 96% 30.09 in 2.0 mi ESE 11.5 mph - 0.01 in Snow Light Snow
3:54 PM 33.1 °F 23.4 °F 32.0 °F 96% 30.08 in 3.0 mi East 13.8 mph - 0.01 in Snow Light Snow
4:14 PM 33.6 °F 22.6 °F 32.4 °F 95% 30.05 in 5.0 mi East 18.4 mph 21.9 mph N/A Rain Light Rain
4:35 PM 34.0 °F 24.6 °F 32.4 °F 94% 30.05 in 4.0 mi East 13.8 mph - N/A Snow Light Snow
4:54 PM 33.8 °F 23.9 °F 32.2 °F 94% 30.03 in 7.0 mi East 15.0 mph 18.4 mph N/A   Light Drizzle
5:14 PM 34.0 °F 22.7 °F 32.4 °F 94% 30.00 in 10.0 mi East 19.6 mph 24.2 mph N/A   Overcast
5:34 PM 34.2 °F 23.3 °F 32.5 °F 94% 29.97 in 10.0 mi East 18.4 mph - N/A   Overcast
5:55 PM 34.2 °F 23.0 °F 32.2 °F 92% 29.98 in 10.0 mi East 19.6 mph 24.2 mph N/A   Overcast
6:14 PM 34.2 °F 24.4 °F 32.0 °F 92% 29.99 in 10.0 mi East 15.0 mph 21.9 mph N/A   Overcast
6:34 PM 34.3 °F 23.9 °F 32.0 °F 91% 29.97 in 10.0 mi East 17.3 mph 24.2 mph N/A   Overcast
6:54 PM 34.7 °F 24.7 °F 32.2 °F 91% 29.96 in 10.0 mi East 16.1 mph 26.5 mph N/A   Overcast
7:14 PM 34.7 °F 23.7 °F 32.0 °F 90% 29.96 in 10.0 mi East 19.6 mph 23.0 mph N/A   Overcast
7:35 PM 34.7 °F 24.7 °F 32.0 °F 90% 29.96 in 10.0 mi East 16.1 mph 23.0 mph N/A   Overcast
7:54 PM 34.3 °F 24.6 °F 32.0 °F 91% 29.96 in 10.0 mi East 15.0 mph - N/A   Overcast
8:14 PM 34.3 °F 23.9 °F 32.0 °F 91% 29.95 in 10.0 mi East 17.3 mph 20.7 mph N/A   Scattered Clouds
8:35 PM 34.2 °F 24.4 °F 32.0 °F 92% 29.95 in 10.0 mi East 15.0 mph - N/A   Clear
8:54 PM 34.3 °F 23.9 °F 32.0 °F 91% 29.94 in 10.0 mi East 17.3 mph 24.2 mph N/A   Scattered Clouds
9:15 PM 34.2 °F 24.0 °F 32.0 °F 92% 29.93 in 10.0 mi East 16.1 mph - N/A   Scattered Clouds
9:34 PM 34.7 °F 25.1 °F 32.0 °F 90% 29.92 in 10.0 mi East 15.0 mph - N/A   Scattered Clouds
9:54 PM 34.7 °F 24.3 °F 32.0 °F 90% 29.91 in 10.0 mi East 17.3 mph 21.9 mph N/A   Scattered Clouds
10:14 PM 34.7 °F 23.7 °F 31.8 °F 89% 29.90 in 10.0 mi East 19.6 mph - N/A   Scattered Clouds
10:34 PM 34.7 °F 23.7 °F 32.0 °F 90% 29.88 in 10.0 mi East 19.6 mph 26.5 mph N/A   Clear
10:55 PM 34.7 °F 24.3 °F 32.0 °F 90% 29.87 in 10.0 mi East 17.3 mph 25.3 mph N/A   Clear
11:14 PM 34.7 °F 23.7 °F 32.0 °F 90% 29.85 in 10.0 mi East 19.6 mph - N/A   Clear
11:34 PM 34.7 °F 24.0 °F 32.0 °F 90% 29.84 in 10.0 mi East 18.4 mph 24.2 mph N/A   Scattered Clouds
11:54 PM 34.7 °F 24.3 °F 31.8 °F 89% 29.83 in 10.0 mi East 17.3 mph - N/A   Scattered Clouds